Regional Weather Roundup
Issued by NWS New Orleans/Baton Rouge, LA

Home | Current Version | Previous Version | Text Only | Print | Product List | Glossary On
Versions: 1 2 3 4 5 6 7 8 9 10 11 12 13 14 15 16 17 18 19 20 21 22 23 24 25 26 27 28 29 30 31 32 33 34 35 36 37 38 39 40 41 42 43 44 45 46 47 48 49 50
000
ASUS44 KLIX 121610
RWRLIX
NEW ORLEANS REGIONAL WEATHER ROUNDUP
NATIONAL WEATHER SERVICE NEW ORLEANS LA
1000 AM CST FRI FEB 12 2016

NOTE: "FAIR" INDICATES FEW OR NO CLOUDS BELOW 12,000 FEET WITH NO
      SIGNIFICANT WEATHER AND/OR OBSTRUCTIONS TO VISIBILITY.
      SKY/WX - SKY CONDITION AND SIGNIFICANT WEATHER.
      TMP - AIR TEMPERATURE.     DP    - DEWPOINT TEMPERATURE.
      RH  - RELATIVE HUMIDITY.   PRES  - PRESSURE.
      HI  - HEAT INDEX.          WCI   - WIND CHILL INDEX.

*  THESE STATIONS ARE NOT NWS OR FAA STATIONS AND ARE NOT UNDER
   NWS QUALITY CONTROL.

LAZ038-040-048-061>063-065>067-069-121700-
SOUTHEAST LOUISIANA

CITY           SKY/WX    TMP DP  RH WIND       PRES   REMARKS
N.O. AUDUBON     N/A     70 N/A N/A MISG        N/A
N.O. INTL ARPT MOSUNNY   70  58  65 W14       30.28R
N.O. LAKEFRONT SUNNY     59  56  89 W12       30.28S
N.O. DOWNTOWN* NOT AVBL
RESERVE*         N/A     69  59  72 W10G17    30.27F
SLIDELL        CLOUDY    64  60  87 NW8       30.27R
BATON ROUGE    CLOUDY    61  58  90 W10       30.29R FOG
BOOTHVILLE     SUNNY     67  57  70 W12       30.29S
BELLE CHASSE   MOSUNNY   67  58  72 W9G16     30.28R
BOGALUSA*        N/A     67  56  68 W8        30.27R
GALLIANO*      SUNNY     69  60  73 W12       30.29R
NEW ROADS*     CLOUDY    63  59  87 W5        30.28S
GONZALES*        N/A     67  60  77 W12       30.27S
HAMMOND*       CLOUDY    63  57  82 NW10      30.27R
HOUMA*         SUNNY     68  61  77 W14       30.29R
PORT FOURCHON* SUNNY     66  59  77 W10       30.30R

$$

MSZ070-080>082-121700-
SOUTHERN MISSISSIPPI

CITY           SKY/WX    TMP DP  RH WIND       PRES   REMARKS
MCCOMB         PTSUNNY   65  56  72 W14G21    30.25R
GULFPORT       PTSUNNY   66  57  72 W10G23    30.24F
BILOXI         NOT AVBL
PASCAGOULA     PTSUNNY   67  57  70 W13G31    30.25R
STENNIS ARPT*  PTSUNNY   66  55  68 W12G17    30.26S

$$

COASTAL OBSERVATIONS
LAKE AND NEARSHORE STATIONS

STATION/POSITION TIME  TEMP    WIND        PRES    WAVE
                       AIR SEA DIR/SP/G            HT/PER
                 (UTC) (F)     (DEG/KT/KT) (MB)    (FT/S)
PASCAGOULA       1500   57     260/  7/ 10 1023.8
WAVELAND YACHT   1500   60 56  280/  5/ 10 1024.3
GRAND ISLE       1500   64 62  270/ 10/ 12 1025.2
NEW CANAL        1500   61 54  270/  4/  5 1024.2
SHELL BEACH      1500   62 54  270/  8/ 10 1024.4

OFFSHORE STATIONS

STATION/POSITION TIME  TEMP    WIND        PRES    WAVE
                       AIR SEA DIR/SP/G            HT/PER
                 (UTC) (F)     (DEG/KT/KT) (MB)    (FT/S)

$$




USA.gov is the U.S. government's official web portal to all federal, state and local government web resources and services.